User: anonymous   Login
Location: Unspecified
(0.0000°N, 0.0000°E)
Time: 19:06:44
(UTC+00:00)
Language:

AALTO 1 - Orbit

View from above orbital plane
View from above orbital plane
View from above satellite
View from above satellite

Ground track
Ground track

The orbit data is extracted from the following two-line orbital elements,

1 42775U 17036L   19077.37700686 +.00000907 +00000-0 +43674-4 0  9997
2 42775 097.3619 136.2701 0014131 177.5137 182.6171 15.21173115096179
Epoch (UTC): 18 March 2019 09:02:53
Eccentricity: 0.0014131
inclination: 97.3619°
perigee height: 492 km
apogee height: 512 km
right ascension of ascending node: 136.2701°
argument of perigee: 177.5137°
revolutions per day: 15.21173115
mean anomaly at epoch: 182.6171°
orbit number at epoch: 9617

The dashed part of the orbit path shows where the satellite is in the earth's shadow,  

DLR